CW8192 Weather Reports


Display with metric or nautical units.
time (UTC)temp
F
wind
direction
speed
MPH
gust
MPH
rain 1hr
in
rain 24hr
in
rain mn
in
humidity
%
barometer
mb
20260510101704 52 175 3.0 9.0 0.00 0.44 0.00 95 1010.0
20260510100704 52 183 4.0 8.0 0.00 0.44 0.00 94 1009.8
20260510100204 51 211 4.0 9.0 0.00 0.44 0.00 94 1009.8
20260510095704 51 180 3.0 10.0 0.00 0.44 0.00 94 1009.8
20260510095204 51 232 2.0 10.0 0.00 0.44 0.00 93 1009.8
20260510094204 51 194 2.0 7.0 0.00 0.44 0.00 93 1009.7
20260510093704 51 168 1.0 5.0 0.00 0.44 0.00 93 1009.6
20260510093205 50 180 2.0 6.0 0.00 0.44 0.00 94 1009.5
20260510092704 50 185 3.0 8.0 0.00 0.44 0.00 94 1009.4
20260510092204 50 164 2.0 3.0 0.00 0.44 0.00 94 1009.3
20260510091704 50 152 2.0 3.0 0.00 0.44 0.00 94 1009.3
20260510091204 50 158 2.0 5.0 0.00 0.44 0.00 95 1009.3
20260510090704 50 142 3.0 7.0 0.00 0.44 0.00 95 1009.3
20260510090205 51 140 3.0 6.0 0.00 0.44 0.00 95 1009.3
20260510085704 51 144 3.0 9.0 0.00 0.44 0.00 95 1009.4
20260510085206 51 184 3.0 5.0 0.00 0.44 0.00 95 1009.4
20260510084704 51 211 2.0 10.0 0.00 0.44 0.00 95 1009.3
20260510084204 51 171 5.0 9.0 0.00 0.44 0.00 95 1009.3
20260510083705 51 202 3.0 9.0 0.00 0.44 0.00 95 1009.5
20260510083204 51 216 3.0 8.0 0.00 0.44 0.00 95 1009.3
20260510082704 52 216 5.0 12.0 0.00 0.44 0.00 95 1009.2
20260510082204 52 200 4.0 9.0 0.00 0.44 0.00 95 1009.3
20260510081205 52 216 3.0 10.0 0.00 0.44 0.00 95 1009.1
20260510080705 52 216 6.0 13.0 0.00 0.44 0.00 95 1009.2
20260510080204 52 211 6.0 12.0 0.00 0.44 0.00 95 1008.8
20260510075704 52 169 5.0 14.0 0.00 0.44 0.00 95 1009.1
20260510075205 52 185 7.0 14.0 0.00 0.44 0.00 95 1009.4
20260510074704 52 197 6.0 17.0 0.00 0.44 0.00 96 1009.5
20260510074204 52 192 5.0 12.0 0.00 0.44 0.00 96 1009.5
20260510073704 52 189 5.0 13.0 0.00 0.44 0.00 95 1009.7
20260510073205 52 204 6.0 14.0 0.00 0.44 0.00 95 1009.8
20260510072705 52 205 3.0 14.0 0.00 0.44 0.00 95 1009.9
20260510071704 52 220 2.0 7.0 0.00 0.44 0.00 95 1010.2
20260510071204 52 193 4.0 8.0 0.00 0.44 0.00 96 1010.2
20260510070704 52 209 3.0 8.0 0.00 0.44 0.00 96 1010.2
20260510070205 52 212 5.0 9.0 0.00 0.44 0.00 96 1010.2
20260510065205 52 229 5.0 9.0 0.00 0.44 0.00 96 1010.2
20260510064704 52 220 2.0 5.0 0.00 0.44 0.00 96 1010.3
20260510064204 52 236 3.0 6.0 0.00 0.44 0.00 96 1010.3
20260510063704 52 240 3.0 7.0 0.00 0.44 0.00 96 1010.1
20260510063205 52 239 4.0 6.0 0.00 0.44 0.00 96 1010.1
20260510062705 52 277 1.0 5.0 0.00 0.44 0.00 96 1009.9
20260510062205 52 210 3.0 6.0 0.00 0.44 0.00 95 1009.6
20260510061704 52 214 2.0 6.0 0.00 0.44 0.00 95 1009.7
20260510061205 52 206 3.0 6.0 0.00 0.44 0.00 96 1009.6
20260510060704 52 195 2.0 8.0 0.00 0.44 0.00 96 1009.6
20260510060204 52 146 2.0 8.0 0.00 0.44 0.00 96 1009.5
20260510055704 51 186 7.0 12.0 0.00 0.44 0.00 96 1009.5
20260510055204 51 174 2.0 6.0 0.00 0.44 0.00 96 1009.5
20260510054704 52 148 4.0 9.0 0.00 0.44 0.00 96 1009.5
20260510054205 52 179 3.0 8.0 0.00 0.44 0.00 96 1009.6
20260510053704 52 181 6.0 14.0 0.00 0.44 0.00 96 1009.6
20260510053204 52 216 4.0 9.0 0.00 0.44 0.00 96 1009.6
20260510052204 52 195 5.0 13.0 0.00 0.44 0.00 95 1009.6
20260510051704 52 186 3.0 12.0 0.00 0.44 0.00 95 1009.5
20260510051204 52 193 6.0 12.0 0.00 0.44 0.00 96 1009.5
20260510050704 52 146 4.0 8.0 0.00 0.44 0.00 96 1009.5
20260510050205 52 212 3.0 9.0 0.00 0.44 0.00 96 1009.6
20260510045704 52 216 5.0 10.0 0.00 0.44 0.00 96 1009.6
20260510045204 52 210 2.0 6.0 0.00 0.44 0.00 96 1009.7
20260510044704 52 179 5.0 10.0 0.00 0.44 0.00 96 1009.7
20260510044204 52 204 3.0 7.0 0.00 0.44 0.00 96 1009.7
20260510043704 52 196 6.0 13.0 0.00 0.44 0.00 95 1009.7
20260510043204 52 227 4.0 10.0 0.00 0.44 0.00 95 1009.8
20260510042704 52 185 3.0 8.0 0.00 0.44 0.00 95 1009.7
20260510042204 52 203 5.0 12.0 0.00 0.44 0.00 95 1009.6
20260510041704 53 175 5.0 12.0 0.00 0.44 0.00 95 1009.7
20260510041204 53 192 5.0 12.0 0.00 0.44 0.00 95 1009.8
20260510040204 53 223 6.0 9.0 0.00 0.44 0.00 95 1009.7
20260510035704 53 198 4.0 14.0 0.00 0.44 0.44 95 1009.7
20260510035204 53 192 5.0 14.0 0.00 0.44 0.44 95 1009.6
20260510034704 53 192 3.0 12.0 0.00 0.44 0.44 95 1009.6
20260510034204 52 180 4.0 9.0 0.00 0.44 0.44 95 1009.5
20260510032205 52 175 4.0 8.0 0.00 0.44 0.44 95 1009.4
20260510031704 52 204 4.0 8.0 0.00 0.44 0.44 95 1009.4
20260510031204 52 193 5.0 12.0 0.00 0.44 0.44 95 1009.4
20260510030705 53 161 4.0 10.0 0.00 0.44 0.44 95 1009.4
20260510024204 53 159 2.0 6.0 0.00 0.44 0.44 95 1009.7
20260510023704 53 174 4.0 7.0 0.00 0.44 0.44 95 1009.7
20260510023204 52 193 5.0 8.0 0.00 0.44 0.44 95 1009.7
20260510022704 52 184 4.0 9.0 0.00 0.44 0.44 95 1009.7
20260510021704 52 203 6.0 14.0 0.00 0.44 0.44 95 1009.9
20260510021204 52 205 4.0 10.0 0.00 0.44 0.44 96 1009.8
20260510020705 52 194 4.0 12.0 0.00 0.44 0.44 96 1009.7
20260510020203 52 188 5.0 8.0 0.00 0.44 0.44 95 1009.8
20260510015704 52 184 3.0 9.0 0.00 0.44 0.44 96 1009.9
20260510015204 52 193 3.0 9.0 0.00 0.44 0.44 96 1009.7
20260510014704 52 170 4.0 8.0 0.00 0.44 0.44 96 1009.7
20260510013704 52 149 2.0 9.0 0.00 0.44 0.44 96 1009.7
20260510013204 52 146 4.0 12.0 0.00 0.44 0.44 96 1009.7
20260510012704 52 182 2.0 7.0 0.00 0.44 0.44 96 1009.8
20260510012204 52 178 3.0 8.0 0.00 0.44 0.44 95 1009.8
20260510011704 52 168 3.0 9.0 0.00 0.44 0.44 95 1009.8
20260510011204 52 160 3.0 7.0 0.00 0.44 0.44 95 1009.9
20260510010704 52 167 2.0 9.0 0.00 0.44 0.44 95 1009.8
20260510010204 52 158 2.0 7.0 0.00 0.44 0.44 95 1009.8
20260510005704 52 162 1.0 6.0 0.00 0.44 0.44 95 1009.8
20260510005204 52 173 2.0 6.0 0.00 0.44 0.44 95 1009.7
20260510004204 52 225 1.0 8.0 0.00 0.44 0.44 95 1009.9
20260510003704 52 204 3.0 6.0 0.00 0.44 0.44 95 1009.8
20260510003204 52 207 2.0 5.0 0.00 0.44 0.44 96 1009.6
20260510002704 52 183 2.0 6.0 0.00 0.44 0.44 96 1009.5
20260510002204 52 190 1.0 5.0 0.00 0.44 0.44 96 1009.3
20260510001704 52 203 3.0 7.0 0.00 0.44 0.44 96 1009.2
20260510001205 52 205 3.0 7.0 0.00 0.44 0.44 95 1009.1
20260510000703 52 192 3.0 8.0 0.00 0.44 0.44 96 1009.0
20260510000204 52 194 2.0 6.0 0.00 0.44 0.44 96 1009.0
20260509235704 52 208 3.0 8.0 0.00 0.44 0.44 96 1008.9
20260509235204 53 200 5.0 12.0 0.00 0.44 0.44 95 1008.8
20260509234204 53 211 5.0 8.0 0.00 0.44 0.44 96 1008.8
20260509233704 53 185 3.0 12.0 0.00 0.44 0.44 96 1008.6
20260509233204 53 156 2.0 6.0 0.00 0.44 0.44 96 1008.5
20260509232704 53 194 4.0 9.0 0.00 0.44 0.44 95 1008.5
20260509232204 53 189 4.0 9.0 0.00 0.44 0.44 95 1008.3
20260509231703 53 173 5.0 8.0 0.00 0.44 0.44 95 1008.4
20260509231204 54 192 3.0 9.0 0.00 0.44 0.44 95 1008.5
20260509230204 54 189 6.0 12.0 0.00 0.44 0.44 95 1008.5
20260509225704 54 184 6.0 13.0 0.00 0.44 0.44 95 1008.5
20260509225204 54 193 4.0 8.0 0.00 0.44 0.44 95 1008.6
20260509224704 54 189 3.0 14.0 0.00 0.44 0.44 95 1008.5
20260509224204 54 179 3.0 12.0 0.00 0.44 0.44 95 1008.6
20260509223705 54 184 6.0 13.0 0.00 0.44 0.44 95 1008.7
20260509222704 54 179 5.0 12.0 0.00 0.44 0.44 95 1008.6
20260509222204 54 212 4.0 10.0 0.00 0.44 0.44 95 1008.6
20260509221704 54 185 6.0 13.0 0.00 0.44 0.44 95 1008.5
20260509221204 54 197 5.0 13.0 0.00 0.44 0.44 95 1008.5
20260509220703 54 190 6.0 13.0 0.00 0.44 0.44 95 1008.6
20260509220204 54 187 3.0 9.0 0.00 0.44 0.44 96 1008.7
20260509215706 54 185 3.0 16.0 0.00 0.44 0.44 95 1008.6
20260509215205 54 196 3.0 9.0 0.00 0.44 0.44 96 1008.6
20260509214206 54 203 2.0 8.0 0.00 0.44 0.44 96 1008.8
20260509213706 54 193 6.0 13.0 0.00 0.44 0.44 95 1008.8
20260509213206 54 191 6.0 10.0 0.00 0.44 0.44 96 1008.8
20260509212205 54 214 4.0 9.0 0.00 0.44 0.44 95 1008.8
20260509211705 54 217 9.0 13.0 0.00 0.44 0.44 95 1008.8
20260509211206 54 205 3.0 12.0 0.00 0.44 0.44 94 1008.9
20260509210705 54 200 6.0 12.0 0.00 0.44 0.44 94 1008.8
20260509210206 54 203 4.0 7.0 0.00 0.44 0.44 94 1008.9
20260509205706 54 202 5.0 10.0 0.00 0.44 0.44 94 1008.9
20260509205206 54 204 6.0 13.0 0.00 0.44 0.44 94 1008.9
20260509204706 53 207 4.0 12.0 0.00 0.44 0.44 93 1009.1
20260509204206 53 197 6.0 12.0 0.00 0.44 0.44 93 1009.1
20260509203705 53 217 5.0 12.0 0.00 0.44 0.44 93 1009.2
20260509203206 53 159 4.0 9.0 0.00 0.44 0.44 93 1009.2
20260509202707 53 176 3.0 9.0 0.00 0.44 0.44 92 1009.3
20260509202207 53 164 3.0 8.0 0.00 0.44 0.44 92 1009.3
20260509201705 53 172 3.0 12.0 0.01 0.44 0.44 92 1009.4
20260509201206 52 203 5.0 10.0 0.01 0.44 0.44 92 1009.4
20260509200706 52 187 4.0 8.0 0.01 0.44 0.44 92 1009.7
20260509200206 52 184 5.0 12.0 0.02 0.44 0.44 92 1009.8
20260509195706 52 202 3.0 12.0 0.03 0.44 0.44 92 1009.8
20260509195205 52 181 5.0 12.0 0.03 0.44 0.44 92 1010.0
20260509194706 52 134 3.0 7.0 0.04 0.44 0.44 92 1009.9
20260509194206 52 203 3.0 12.0 0.04 0.44 0.44 92 1010.0
20260509193705 52 150 6.0 12.0 0.05 0.44 0.44 92 1010.0
20260509193206 52 184 5.0 12.0 0.05 0.44 0.44 92 1010.0
20260509192705 52 177 6.0 12.0 0.06 0.44 0.44 92 1010.1
20260509192205 52 180 5.0 9.0 0.06 0.44 0.44 92 1010.1
20260509191705 51 189 3.0 9.0 0.06 0.43 0.43 92 1010.2
20260509191206 51 202 2.0 7.0 0.06 0.43 0.43 92 1010.3
20260509190205 51 188 3.0 6.0 0.06 0.42 0.42 92 1010.4
20260509185706 51 182 4.0 9.0 0.05 0.41 0.41 92 1010.5
20260509185206 51 203 3.0 6.0 0.06 0.41 0.41 92 1010.4
20260509184205 51 208 3.0 6.0 0.05 0.40 0.40 92 1010.5
20260509183706 51 191 4.0 8.0 0.04 0.39 0.39 92 1010.4
20260509183205 51 177 3.0 9.0 0.05 0.39 0.39 92 1010.4
20260509181205 50 166 3.0 10.0 0.04 0.37 0.37 93 1010.4
20260509180706 50 155 3.0 9.0 0.03 0.36 0.36 93 1010.3
20260509180206 50 164 5.0 10.0 0.04 0.36 0.36 93 1010.3
20260509175705 50 171 5.0 10.0 0.04 0.36 0.36 93 1010.3
20260509175205 50 171 3.0 8.0 0.03 0.35 0.35 93 1010.4
20260509174707 50 155 4.0 13.0 0.03 0.35 0.35 93 1010.4
20260509174205 50 188 3.0 10.0 0.04 0.35 0.35 93 1010.5
20260509173706 50 167 5.0 10.0 0.04 0.35 0.35 93 1010.5
20260509173206 50 185 3.0 12.0 0.03 0.34 0.34 93 1010.6
20260509172706 49 154 6.0 13.0 0.03 0.34 0.34 93 1010.6
20260509171705 49 186 6.0 10.0 0.03 0.33 0.33 93 1010.6
20260509171205 49 185 3.0 8.0 0.03 0.33 0.33 93 1010.6
20260509170705 49 177 3.0 7.0 0.04 0.33 0.33 93 1010.7
20260509170206 49 182 4.0 10.0 0.03 0.32 0.32 93 1010.7
20260509165705 49 155 3.0 7.0 0.04 0.32 0.32 94 1010.7
20260509165205 49 141 4.0 10.0 0.04 0.32 0.32 94 1010.8
20260509164706 49 149 6.0 9.0 0.04 0.32 0.32 93 1010.9
20260509164206 49 159 4.0 8.0 0.04 0.31 0.31 93 1011.0
20260509163706 49 172 5.0 10.0 0.04 0.31 0.31 93 1011.0
20260509163205 49 141 4.0 8.0 0.05 0.31 0.31 93 1011.1
20260509162205 49 147 2.0 5.0 0.05 0.31 0.31 92 1011.3
20260509161705 49 177 3.0 5.0 0.05 0.30 0.30 93 1011.5
20260509160706 49 192 1.0 3.0 0.05 0.29 0.29 92 1011.6
20260509160205 49 188 1.0 2.0 0.05 0.29 0.29 92 1011.6
20260509155705 49 151 1.0 3.0 0.05 0.28 0.28 92 1011.6
20260509155205 48 123 1.0 3.0 0.05 0.28 0.28 92 1011.7
20260509154706 48 199 2.0 5.0 0.06 0.28 0.28 93 1011.8
20260509154206 48 176 2.0 3.0 0.06 0.27 0.27 92 1011.9
20260509153707 48 176 0.0 3.0 0.07 0.27 0.27 92 1012.0
20260509153206 48 192 1.0 2.0 0.07 0.26 0.26 92 1012.0
20260509152705 48 207 1.0 3.0 0.08 0.26 0.26 92 1012.1
20260509152205 47 208 1.0 3.0 0.09 0.26 0.26 92 1012.3
20260509151706 47 227 1.0 3.0 0.09 0.25 0.25 92 1012.3
20260509151206 47 195 1.0 3.0 0.10 0.25 0.25 92 1012.3
20260509150706 48 236 2.0 3.0 0.09 0.24 0.24 92 1012.4
20260509150205 48 236 2.0 3.0 0.10 0.24 0.24 91 1012.3
20260509145706 48 229 2.0 3.0 0.10 0.23 0.23 92 1012.3
20260509145206 47 217 1.0 3.0 0.11 0.23 0.23 92 1012.1
20260509144705 48 234 1.0 3.0 0.11 0.22 0.22 92 1012.2
20260509144205 47 186 0.0 0.0 0.11 0.21 0.21 92 1012.1
20260509143706 47 216 0.0 1.0 0.11 0.20 0.20 92 1012.0
20260509143205 47 221 1.0 3.0 0.11 0.19 0.19 92 1012.0
20260509142706 47 223 1.0 3.0 0.10 0.18 0.18 92 1012.1
20260509142207 47 226 2.0 3.0 0.10 0.17 0.17 92 1012.1
20260509141706 47 261 0.0 0.0 0.09 0.16 0.16 92 1012.1
20260509140705 48 240 1.0 3.0 0.09 0.15 0.15 92 1012.1
20260509140205 47 210 0.0 3.0 0.08 0.14 0.14 92 1012.0
20260509135706 47 206 0.0 0.0 0.07 0.13 0.13 92 1012.0
20260509135205 47 206 0.0 1.0 0.06 0.12 0.12 92 1011.9
20260509134706 47 186 0.0 2.0 0.06 0.11 0.11 92 1011.9
20260509133705 47 184 0.0 2.0 0.05 0.09 0.09 92 1011.8
20260509133205 47 157 1.0 3.0 0.05 0.08 0.08 92 1011.8
20260509132705 47 131 2.0 3.0 0.06 0.08 0.08 92 1011.7
20260509131705 47 117 2.0 3.0 0.06 0.07 0.07 93 1011.7
20260509131206 47 131 3.0 5.0 0.06 0.07 0.07 93 1011.8
20260509130706 47 140 3.0 7.0 0.06 0.06 0.06 93 1011.8
20260509130206 47 138 4.0 8.0 0.06 0.06 0.06 94 1012.0
20260509125706 47 150 3.0 3.0 0.06 0.06 0.06 94 1012.1
20260509125205 47 154 2.0 8.0 0.06 0.06 0.06 94 1012.1
20260509124705 47 162 2.0 7.0 0.05 0.05 0.05 95 1012.1
20260509123705 47 159 3.0 7.0 0.04 0.04 0.04 95 1012.0
20260509123205 47 182 3.0 6.0 0.03 0.03 0.03 95 1012.2
20260509122705 47 169 4.0 6.0 0.02 0.02 0.02 95 1012.2
20260509122206 47 184 3.0 8.0 0.02 0.02 0.02 95 1012.2
20260509121206 47 206 3.0 5.0 0.01 0.01 0.01 95 1012.2
20260509120706 47 200 2.0 5.0 0.00 0.00 0.00 95 1012.3
20260509115705 47 187 3.0 6.0 0.00 0.00 0.00 94 1012.2
20260509115205 47 197 3.0 6.0 0.00 0.00 0.00 94 1012.0
20260509114705 47 204 2.0 5.0 0.00 0.00 0.00 94 1012.0
20260509113706 47 176 2.0 7.0 0.00 0.00 0.00 93 1012.0
20260509113206 47 181 5.0 9.0 0.00 0.00 0.00 93 1012.2
20260509112706 47 178 3.0 8.0 0.00 0.00 0.00 93 1012.1
20260509112205 46 191 4.0 9.0 0.00 0.00 0.00 93 1012.2
20260509111706 46 163 3.0 6.0 0.00 0.00 0.00 93 1012.2
20260509111205 46 196 4.0 9.0 0.00 0.00 0.00 94 1012.1
20260509110205 45 159 6.0 9.0 0.00 0.00 0.00 95 1012.0
20260509105705 45 172 5.0 10.0 0.00 0.00 0.00 95 1012.1
20260509105205 44 134 6.0 12.0 0.00 0.00 0.00 95 1012.0
20260509104205 44 134 4.0 7.0 0.00 0.00 0.00 95 1012.0
20260509102706 44 132 3.0 3.0 0.00 0.00 0.00 94 1012.2